KLM79C EHAM-EKCH

Flight info

Callsign KLM79C
Flight time 1h 4m
Altitude 33000
Route ANDIK DCT JUIST DCT DOSUR DCT TALSA P729 TUDLO
Aircraft E75L/M-SDE3GILORVW/S

Departure

Time 2026-05-04 09:35
Airport Amsterdam Airport Schiphol (EHAM)

Arrival

Time 2026-05-04 10:39
Airport Copenhagen Kastrup Airport (EKCH)
Time Latitude Longitude Altitude Speed Heading
2026-05-04 09:14 52.30792 4.77166 -3 ft 0 kts 183°
2026-05-04 09:26 52.30792 4.77167 -3 ft 0 kts 179°
2026-05-04 09:26 52.30791 4.77167 -3 ft 0 kts 160°
2026-05-04 09:27 52.30790 4.77170 -3 ft 0 kts 133°
2026-05-04 09:27 52.30788 4.77175 -3 ft 0 kts 113°
2026-05-04 09:27 52.30789 4.77178 -3 ft 1 kts 89°
2026-05-04 09:27 52.30791 4.77184 -3 ft 1 kts 50°
2026-05-04 09:28 52.30805 4.77189 -3 ft 4 kts
2026-05-04 09:28 52.30829 4.77194 -3 ft 3 kts 14°
2026-05-04 09:28 52.30843 4.77238 -3 ft 5 kts 92°
2026-05-04 09:28 52.30841 4.77300 -3 ft 6 kts 95°
2026-05-04 09:29 52.30838 4.77366 -3 ft 6 kts 93°
2026-05-04 09:29 52.30835 4.77437 -3 ft 6 kts 95°
2026-05-04 09:29 52.30831 4.77496 -3 ft 5 kts 97°
2026-05-04 09:29 52.30830 4.77530 -3 ft 2 kts 87°
2026-05-04 09:30 52.30832 4.77553 -3 ft 2 kts 76°
2026-05-04 09:30 52.30837 4.77571 -3 ft 1 kts 63°
2026-05-04 09:30 52.30838 4.77576 -3 ft 1 kts 58°
2026-05-04 09:30 52.30844 4.77586 -3 ft 2 kts 41°
2026-05-04 09:31 52.30864 4.77595 -3 ft 5 kts
2026-05-04 09:31 52.30920 4.77606 -3 ft 11 kts
2026-05-04 09:31 52.31018 4.77617 -3 ft 17 kts 357°
2026-05-04 09:31 52.31160 4.77636 -3 ft 23 kts
2026-05-04 09:32 52.31282 4.77740 -3 ft 17 kts 60°
2026-05-04 09:32 52.31312 4.77799 -3 ft 4 kts 43°
2026-05-04 09:34 52.31354 4.77944 -3 ft 2 kts 184°
2026-05-04 09:34 52.31241 4.77935 -3 ft 48 kts 183°
2026-05-04 09:34 52.30630 4.77877 -3 ft 126 kts 183°
2026-05-04 09:34 52.29541 4.77761 183 ft 179 kts 181°
2026-05-04 09:35 52.28101 4.77674 342 ft 238 kts 183°
2026-05-04 09:35 52.26361 4.77973 785 ft 280 kts 163°
2026-05-04 09:35 52.24507 4.79776 1081 ft 334 kts 135°
2026-05-04 09:35 52.23157 4.82816 2195 ft 329 kts 116°
2026-05-04 09:37 52.28604 5.02542 2978 ft 261 kts 41°
2026-05-04 09:37 52.29988 5.04491 2993 ft 263 kts 40°
2026-05-04 09:38 52.31404 5.06384 3008 ft 263 kts 35°
2026-05-04 09:38 52.32999 5.07848 3011 ft 262 kts 25°
2026-05-04 09:38 52.34664 5.09065 3012 ft 263 kts 23°
2026-05-04 09:38 52.36335 5.10197 3474 ft 260 kts 22°
2026-05-04 09:39 52.38061 5.11194 4089 ft 265 kts 16°
2026-05-04 09:39 52.39846 5.12023 4694 ft 268 kts 15°
2026-05-04 09:39 52.41651 5.12820 5279 ft 270 kts 14°
2026-05-04 09:39 52.43487 5.13616 5873 ft 274 kts 14°
2026-05-04 09:40 52.45334 5.14417 6464 ft 276 kts 13°
2026-05-04 09:40 52.47202 5.15233 7025 ft 279 kts 13°
2026-05-04 09:40 52.49088 5.16059 7593 ft 282 kts 13°
2026-05-04 09:40 52.50996 5.16896 8173 ft 285 kts 13°
2026-05-04 09:41 52.52921 5.17744 8761 ft 287 kts 13°
2026-05-04 09:42 52.66786 5.23872 12874 ft 303 kts 12°
2026-05-04 09:43 52.68826 5.24773 13475 ft 306 kts 12°
2026-05-04 09:43 52.70838 5.25848 14028 ft 311 kts 24°
2026-05-04 09:43 52.72692 5.27740 14595 ft 316 kts 33°
2026-05-04 09:43 52.74432 5.30004 15164 ft 321 kts 38°
2026-05-04 09:44 52.76101 5.32482 15741 ft 325 kts 41°
2026-05-04 09:44 52.77746 5.35072 16330 ft 328 kts 42°
2026-05-04 09:44 52.79370 5.37728 16923 ft 331 kts 45°
2026-05-04 09:46 52.90166 5.58704 20955 ft 352 kts 47°
2026-05-04 09:46 52.91748 5.61812 21539 ft 354 kts 47°
2026-05-04 09:46 52.92799 5.63881 21938 ft 354 kts 47°
2026-05-04 09:47 52.94388 5.67007 22549 ft 355 kts 47°
2026-05-04 09:47 52.95978 5.70143 23168 ft 355 kts 47°
2026-05-04 09:49 53.07036 5.92051 27027 ft 346 kts 48°
2026-05-04 09:49 53.08566 5.95099 27595 ft 340 kts 48°
2026-05-04 09:49 53.10061 5.98078 28140 ft 335 kts 48°
2026-05-04 09:51 53.19157 6.16286 29939 ft 344 kts 48°
2026-05-04 09:51 53.20688 6.19369 30188 ft 345 kts 48°
2026-05-04 09:51 53.22220 6.22453 30436 ft 346 kts 48°
2026-05-04 09:51 53.23753 6.25543 30696 ft 346 kts 48°
2026-05-04 09:52 53.25281 6.28629 30966 ft 345 kts 48°
2026-05-04 09:52 53.26811 6.31720 31225 ft 345 kts 49°
2026-05-04 09:52 53.28340 6.34810 31490 ft 344 kts 49°
2026-05-04 09:52 53.29864 6.37900 31736 ft 344 kts 49°
2026-05-04 09:53 53.31379 6.40970 31983 ft 343 kts 49°
2026-05-04 09:53 53.32899 6.44057 32222 ft 342 kts 49°
2026-05-04 09:53 53.34410 6.47130 32466 ft 342 kts 49°
2026-05-04 09:53 53.35920 6.50203 32703 ft 341 kts 49°
2026-05-04 09:54 53.37428 6.53278 32912 ft 343 kts 49°
2026-05-04 09:54 53.40498 6.59546 33043 ft 355 kts 49°
2026-05-04 09:55 53.43676 6.66052 33077 ft 371 kts 49°
2026-05-04 09:55 53.47036 6.72949 33091 ft 388 kts 49°
2026-05-04 09:56 53.50502 6.80083 33098 ft 406 kts 49°
2026-05-04 09:56 53.54145 6.87593 33099 ft 423 kts 49°
2026-05-04 09:57 53.58159 6.95109 33086 ft 440 kts 43°
2026-05-04 09:57 53.62564 7.02562 33065 ft 457 kts 43°
2026-05-04 09:58 53.67139 7.10263 33050 ft 472 kts 43°
2026-05-04 09:58 53.71773 7.18089 33005 ft 469 kts 43°
2026-05-04 10:00 53.90230 7.49521 33027 ft 472 kts 43°
2026-05-04 10:04 54.22447 8.05412 33037 ft 474 kts 44°
2026-05-04 10:04 54.27043 8.13493 33014 ft 473 kts 43°
2026-05-04 10:05 54.31600 8.21531 33028 ft 474 kts 44°
2026-05-04 10:05 54.36212 8.29696 33019 ft 474 kts 44°
2026-05-04 10:06 54.40760 8.37775 33022 ft 474 kts 44°
2026-05-04 10:06 54.45328 8.45919 33016 ft 474 kts 44°
2026-05-04 10:08 54.61171 8.74377 33003 ft 475 kts 44°
2026-05-04 10:08 54.65723 8.82617 33009 ft 475 kts 44°
2026-05-04 10:09 54.70272 8.90880 33006 ft 470 kts 44°
2026-05-04 10:09 54.74765 8.99070 32996 ft 470 kts 44°
2026-05-04 10:10 54.79262 9.07295 32989 ft 470 kts 44°
2026-05-04 10:10 54.83763 9.15517 32995 ft 470 kts 43°
2026-05-04 10:11 54.88134 9.23864 32984 ft 471 kts 46°
2026-05-04 10:11 54.92502 9.32469 32994 ft 473 kts 46°
2026-05-04 10:12 54.96807 9.40983 32972 ft 471 kts 46°
2026-05-04 10:12 55.01128 9.49557 32978 ft 471 kts 46°
2026-05-04 10:13 55.05449 9.58158 32974 ft 471 kts 46°
2026-05-04 10:13 55.09621 9.66977 32968 ft 473 kts 55°
2026-05-04 10:14 55.12388 9.77366 32983 ft 474 kts 74°
2026-05-04 10:16 55.20110 10.21605 32977 ft 477 kts 73°
2026-05-04 10:16 55.22048 10.32701 32971 ft 477 kts 73°
2026-05-04 10:17 55.23979 10.43825 32970 ft 477 kts 73°
2026-05-04 10:19 55.31783 10.88257 32967 ft 475 kts 73°
2026-05-04 10:19 55.33751 10.99352 32964 ft 475 kts 73°
2026-05-04 10:20 55.35705 11.10449 32956 ft 475 kts 73°
2026-05-04 10:20 55.37656 11.21597 32957 ft 479 kts 73°
2026-05-04 10:21 55.39603 11.32787 32954 ft 478 kts 73°
2026-05-04 10:21 55.41490 11.43929 32948 ft 478 kts 78°
2026-05-04 10:22 55.43742 11.61049 32788 ft 480 kts 68°
2026-05-04 10:22 55.45108 11.65971 32419 ft 478 kts 58°
2026-05-04 10:23 55.47010 11.70833 31852 ft 475 kts 48°
2026-05-04 10:23 55.49243 11.74975 31302 ft 471 kts 38°
2026-05-04 10:25 55.66916 11.99262 23268 ft 438 kts 39°
2026-05-04 10:25 55.69143 12.02793 21779 ft 428 kts 39°
2026-05-04 10:25 55.71294 12.06334 20396 ft 418 kts 46°
2026-05-04 10:25 55.72865 12.10626 19071 ft 413 kts 67°
2026-05-04 10:26 55.73541 12.15372 17772 ft 404 kts 88°
2026-05-04 10:26 55.73346 12.20242 16411 ft 390 kts 103°
2026-05-04 10:26 55.72803 12.24908 15108 ft 382 kts 104°
2026-05-04 10:26 55.72420 12.29527 13864 ft 376 kts 98°
2026-05-04 10:27 55.72114 12.34074 12580 ft 368 kts 98°
2026-05-04 10:27 55.71842 12.38381 11405 ft 361 kts 98°
2026-05-04 10:27 55.71570 12.42727 10526 ft 346 kts 97°
2026-05-04 10:27 55.71473 12.46893 9757 ft 332 kts 87°
2026-05-04 10:28 55.71756 12.50875 8931 ft 320 kts 77°
2026-05-04 10:28 55.72288 12.54647 8152 ft 309 kts 71°
2026-05-04 10:28 55.73105 12.58091 7307 ft 298 kts 57°
2026-05-04 10:28 55.74237 12.61079 6671 ft 284 kts 50°
2026-05-04 10:29 55.75375 12.63852 6115 ft 273 kts 52°
2026-05-04 10:29 55.76276 12.66751 5471 ft 267 kts 64°
2026-05-04 10:29 55.76951 12.69801 4802 ft 264 kts 66°
2026-05-04 10:29 55.77547 12.72864 4134 ft 261 kts 70°
2026-05-04 10:30 55.77964 12.75990 3439 ft 259 kts 77°
2026-05-04 10:30 55.78490 12.79020 2746 ft 254 kts 62°
2026-05-04 10:30 55.79514 12.81477 2187 ft 244 kts 38°
2026-05-04 10:30 55.80397 12.82774 2146 ft 251 kts 33°
2026-05-04 10:31 55.81772 12.84564 2362 ft 235 kts 31°
2026-05-04 10:31 55.83038 12.86158 2325 ft 212 kts 31°
2026-05-04 10:32 55.80453 12.95729 1158 ft 150 kts 215°
2026-05-04 10:33 55.79573 12.94602 828 ft 157 kts 226°
2026-05-04 10:33 55.79080 12.93750 1042 ft 144 kts 229°
2026-05-04 10:33 55.78410 12.92501 1586 ft 138 kts 229°
2026-05-04 10:33 55.77708 12.91213 1934 ft 155 kts 230°
2026-05-04 10:34 55.77030 12.89758 1555 ft 153 kts 243°
2026-05-04 10:34 55.76350 12.88324 1280 ft 149 kts 225°
2026-05-04 10:34 55.75588 12.87189 1306 ft 142 kts 229°
2026-05-04 10:34 55.74851 12.85953 1356 ft 148 kts 226°
2026-05-04 10:35 55.74064 12.84755 1407 ft 151 kts 226°
2026-05-04 10:35 55.73277 12.83508 1460 ft 151 kts 227°
2026-05-04 10:35 55.72548 12.82367 1474 ft 150 kts 226°
2026-05-04 10:35 55.71759 12.81130 1451 ft 161 kts 219°
2026-05-04 10:36 55.70896 12.79786 1523 ft 158 kts 226°
2026-05-04 10:36 55.70095 12.78533 1479 ft 146 kts 227°
2026-05-04 10:36 55.69337 12.77348 1468 ft 148 kts 227°
2026-05-04 10:36 55.68562 12.76140 1481 ft 150 kts 225°
2026-05-04 10:37 55.67779 12.74917 1391 ft 151 kts 227°
2026-05-04 10:37 55.67004 12.73706 1174 ft 147 kts 227°
2026-05-04 10:37 55.66233 12.72508 1005 ft 149 kts 226°
2026-05-04 10:37 55.65450 12.71288 834 ft 150 kts 225°
2026-05-04 10:39 55.61214 12.64705 23 ft 51 kts 218°
2026-05-04 10:39 55.60998 12.64359 21 ft 36 kts 221°
2026-05-04 10:39 55.60836 12.64114 23 ft 23 kts 221°
2026-05-04 10:40 55.60717 12.63925 24 ft 23 kts 225°
2026-05-04 10:40 55.60721 12.63732 22 ft 18 kts 311°
2026-05-04 10:40 55.60810 12.63593 21 ft 14 kts 359°
2026-05-04 10:40 55.60903 12.63666 22 ft 15 kts 37°
2026-05-04 10:41 55.60994 12.63782 21 ft 17 kts 32°
2026-05-04 10:41 55.61102 12.63903 23 ft 19 kts 33°
2026-05-04 10:41 55.61218 12.64038 21 ft 21 kts 32°
2026-05-04 10:41 55.61344 12.64182 21 ft 22 kts 33°
2026-05-04 10:42 55.61478 12.64338 22 ft 24 kts 33°
2026-05-04 10:42 55.61623 12.64502 22 ft 25 kts 32°
2026-05-04 10:42 55.61775 12.64679 23 ft 27 kts 33°
2026-05-04 10:42 55.61935 12.64861 23 ft 28 kts 32°
2026-05-04 10:43 55.62100 12.65052 22 ft 29 kts 34°
2026-05-04 10:44 55.62738 12.65180 22 ft 3 kts 357°
2026-05-04 10:45 55.62740 12.65179 22 ft 0 kts 356°